This is the latest recevied weather packets stored in our database for station/object OE3MHU-13. If no packets are shown the sender has not sent any weather packets the latest 10 day(s).
| Time | Temp. | Humidity | Pressure | Rain* | Wind** | Luminosity | Snow |
|---|---|---|---|---|---|---|---|
| 1787961977 | 20° C | 89% | 1015.9 hPa | 2.29 mm | - | - | - |
| 1787961676 | 20° C | 89% | 1015.6 hPa | 2.03 mm | - | - | - |
| 1787961377 | 20.56° C | 87% | 1015.5 hPa | 2.03 mm | - | - | - |
| 1787961076 | 20.56° C | 86% | 1015.5 hPa | 1.52 mm | - | - | - |
| 1787960777 | 21.11° C | 85% | 1015.2 hPa | 1.52 mm | - | - | - |
| 1787960477 | 21.67° C | 83% | 1015.3 hPa | 1.02 mm | - | - | - |
| 1787960177 | 22.22° C | 79% | 1015.2 hPa | 0.25 mm | - | - | - |
| 1787959873 | 22.78° C | 77% | 1015 hPa | 0 mm | - | - | - |
| 1787959573 | 22.78° C | 77% | 1014.8 hPa | 0 mm | - | - | - |
| 1787959273 | 22.78° C | 77% | 1014.9 hPa | 0 mm | - | - | - |
| 1787958972 | 22.78° C | 77% | 1014.7 hPa | 0 mm | - | - | - |
| 1787958672 | 22.78° C | 77% | 1014.6 hPa | 0 mm | - | - | - |
| 1787958373 | 22.78° C | 77% | 1014.7 hPa | 0 mm | - | - | - |
| 1787958072 | 22.78° C | 77% | 1014.6 hPa | 0 mm | - | - | - |
| 1787957773 | 22.78° C | 77% | 1014.3 hPa | 0 mm | - | - | - |
| 1787957472 | 22.78° C | 77% | 1014.3 hPa | 0 mm | - | - | - |
| 1787957169 | 22.78° C | 76% | 1014.3 hPa | 0 mm | - | - | - |
| 1787956869 | 22.78° C | 76% | 1014.3 hPa | 0 mm | - | - | - |
| 1787956568 | 23.33° C | 76% | 1014.1 hPa | 0 mm | - | - | - |
| 1787956269 | 23.33° C | 75% | 1014.2 hPa | 0 mm | - | - | - |
| 1787955968 | 23.33° C | 75% | 1014 hPa | 0 mm | - | - | - |
| 1787955668 | 23.33° C | 74% | 1014.1 hPa | 0 mm | - | - | - |
| 1787955369 | 23.89° C | 74% | 1014.2 hPa | 0 mm | - | - | - |
| 1787955069 | 23.89° C | 74% | 1014.2 hPa | 0 mm | - | - | - |
| 1787954769 | 23.89° C | 74% | 1013.9 hPa | 0 mm | - | - | - |
* Rain latest hour (hover to see other rain measurements)
** Current wind speed in m/s (hover to see current wind gust speed)